Location: Wiesbaden
(50.0830°N, 8.2500°E)
Time: 08:48:59
(UTC+01:00)

ISS - Pass Details

Date: 08 December 2018
Orbit: 401 x 408 km, 51.6° (Epoch: 12 December)

Event Time Altitude Azimuth Distance (km) Brightness Sun altitude
Rises 19:11:30 0° 286° (WNW) 2,319 1.1 -25.5°
Reaches altitude 10° 19:13:43 10° 276° (W) 1,457 0.0 -25.9°
Enters shadow 19:15:34 24° 249° (WSW) 875 -1.5 -26.2°
